STARLINK-11648, 63313

Orbit data source: Space-Track

STARLINK-11648, 63313 is a payload satellite owned by SpaceX/Seattle (US) in LEO that was launched on Tue, 18 Mar 2025 UTC via an FALCON 9 launch vehicle from the Air Force Eastern Test Range (AFETR). Payload-class satellites include a variety of spacecraft equipped with specific instruments for various scientific and technological missions. These include communications satellites like Starlink; space stations such as the ISS; scientific satellites like the Hubble; Earth observation satellites from companies like Planet Labs, Umbra, and HawkEye 360; GPS; miniature CubeSats for education and research; and military/defense satellites.

Loading next visibility...
Identifier
63313, 2025-057G
Orbit
LEO
Country
Flag of USUS
Related business
Manufacturer
SpaceX/Seattle
Mission
Operational Commercial Communications
Bus & Motor
STARLINK V2MD, Unknown motor
Mass
960 kg wet, ~910 kg dry
Launch date (UTC)
2025-03-18 (1 year ago)
Launch vehicle
FALCON 9
Launch site
Air Force Eastern Test Range (AFETR)
Object type
Payload
Rocket body
Debris
Shape & HBR
Box + 2 Pan, 18.1 m
Radar Cross Section
36.964 m², Large (>1 m²)

Expand to show TLE details & history
Last TLE update: 8 hours ago

TLE from 8 hours ago
0 STARLINK-11648
1 63313U 25057G   26257.58392867  .00192412  00000-0  14618-2 0  9996
2 63313  43.0009 206.1282 0002152 273.5989  86.4633 15.70948737 86889
Epoch: 2026-09-14T14:00Z
TLE epoch observation values (Epoch: 2026-09-14T14:00:51.437Z)
Latitude
0.00003°
Longitude
2.35178°
Altitude
355.866 km
Speed
7.698 km/s
True Right ascension
13h 44m 30s
True Declination
0° 00' 00"
Sunlit
Object was in daylight at epoch
Visualization orbit readout
Latitude
Unknown
Longitude
Unknown
Altitude
Unknown
Speed
Unknown
Apparent Right ascension
Unknown
Apparent Declination
Unknown
Sunlit
N/A
Visualization observer readout
Local Sidereal Time
14:20:34
Azimuth
Unknown
Elevation
Unknown
Doppler factor
Unknown
Orbital elements
Apogee altitude
359.615 km
Perigee altitude
356.716 km
Semi-major axis
6,736.303 km
Eccentricity
0.00022
Inclination
43.0009°
RAAN
206.1282°
Arg. of periapsis
273.5989°
True anomaly
86.48791°
Mean anomaly
86.4633°
Eccentric anomaly
86.47561°
Mean motion
3.92564 °/min
Orbital period
91.7 mins
BSTAR
0.0014618
Loading maneuver chart data...
Computing Atmospheric mass density...
Loading historical data...
Loading historical data...
Loading historical data...
Loading historical data...
Loading historical data...
Loading historical data...
Loading historical data...

Documentation

Showing up to 5 results
|